Language: 


Des rapports , des résumés tant et plus, au choix de chacun....


Données statistiques de la station
Quotidien Rapport Janvier 19, 2017 Unités:  Anglais    Métrique   les deux
« Précédent Jour
Suivant Jour »
Quotidien Hebdomadaire Mensuel Annuel Actuel
  Haut: Bas: Moyen:
Température: 39.2 °F 26.2 °F 31.1 °F
Pt de rosée: 28.9 °F 22.8 °F 25.9 °F
Humidité: 97 % 0 % 82 %
Vitesse du vent: 10.7 mph 2.2 mph 5.6 mph
Rafales: 12.5 mph - -
Vent:- - NE
Pression: 30.6 in 30.5 in -
Précipitation: 0 in    
Historical Graphs
 
 
Données statistiques pour Janvier 19, 2017
Heure Température Point de rosée Pression Vent Vitesse du vent Refales Humidité Pluie (taux horaire)
00:03 27.3 °F 26.2 °F 30.6 in NNE 4.7 mph 5.8 mph 95 % 0 in
00:08 27.7 °F 26.6 °F 30.6 in NE 3.8 mph 5.8 mph 96 % 0 in
00:13 27.3 °F 26.2 °F 30.6 in NNE 4.3 mph 6.3 mph 95 % 0 in
00:18 27.1 °F 26.1 °F 30.6 in NE 6.5 mph 7.4 mph 95 % 0 in
00:23 27.3 °F 26.4 °F 30.6 in North 5.8 mph 7.8 mph 96 % 0 in
00:28 27.3 °F 26.4 °F 30.6 in NNE 4.9 mph 7.8 mph 96 % 0 in
00:33 27.3 °F 26.4 °F 30.6 in NNE 5.8 mph 7.8 mph 96 % 0 in
00:38 27.3 °F 26.4 °F 30.6 in NNE 4.9 mph 7.8 mph 96 % 0 in
00:43 27.3 °F 26.4 °F 30.6 in NNE 4.3 mph 6.5 mph 96 % 0 in
00:48 27.1 °F 26.2 °F 30.6 in NE 3.8 mph 6.5 mph 96 % 0 in
00:53 27.1 °F 26.2 °F 30.6 in NNE 6.3 mph 6.5 mph 96 % 0 in
00:58 27.1 °F 26.2 °F 30.6 in NNE 3.1 mph 6.3 mph 96 % 0 in
01:03 27.1 °F 26.2 °F 30.6 in ENE 4.3 mph 6.3 mph 96 % 0 in
01:08 27.1 °F 26.1 °F 30.6 in NNE 6.3 mph 6.3 mph 96 % 0 in
01:13 27.1 °F 25.9 °F 30.6 in NNE 5.4 mph 6.3 mph 95 % 0 in
01:18 27.1 °F 26.1 °F 30.6 in NNE 6.3 mph 6.3 mph 96 % 0 in
01:23 27.1 °F 26.1 °F 30.6 in NE 6.3 mph 6.5 mph 96 % 0 in
01:28 27.1 °F 26.1 °F 30.6 in NE 6 mph 6.5 mph 96 % 0 in
01:33 27.1 °F 26.1 °F 30.6 in NNE 4.9 mph 6.5 mph 96 % 0 in
01:38 27.1 °F 26.1 °F 30.6 in NE 5.8 mph 7.6 mph 96 % 0 in
01:43 27.1 °F 26.1 °F 30.6 in NNE 7.2 mph 7.6 mph 96 % 0 in
01:48 27.1 °F 26.1 °F 30.6 in NE 5.6 mph 7.4 mph 96 % 0 in
01:53 27.1 °F 26.1 °F 30.6 in NE 6.3 mph 7.4 mph 96 % 0 in
01:58 27 °F 25.9 °F 30.6 in NE 5.6 mph 8.1 mph 96 % 0 in
02:03 32 °F 25.9 °F 30.6 in NNE 6 mph 6.3 mph 0 % 0 in
02:08 27 °F 25.9 °F 30.6 in North 6.3 mph 7.2 mph 96 % 0 in
02:13 27 °F 25.9 °F 30.6 in NNE 4.3 mph 7.2 mph 96 % 0 in
02:18 27 °F 25.9 °F 30.6 in NNE 4.7 mph 6.5 mph 96 % 0 in
02:23 27 °F 25.9 °F 30.6 in NNE 4.9 mph 6.3 mph 96 % 0 in
02:28 26.8 °F 25.7 °F 30.6 in NE 4.3 mph 6.5 mph 96 % 0 in
02:33 26.8 °F 25.7 °F 30.6 in NNE 6 mph 6.5 mph 96 % 0 in
02:38 26.8 °F 25.7 °F 30.6 in NE 6.5 mph 6.5 mph 96 % 0 in
02:43 26.8 °F 25.7 °F 30.6 in NE 5.6 mph 6.5 mph 96 % 0 in
02:48 26.8 °F 25.7 °F 30.6 in NE 6 mph 7.6 mph 96 % 0 in
02:53 26.8 °F 26.1 °F 30.5 in NNE 5.8 mph 7.6 mph 97 % 0 in
02:58 26.8 °F 25.7 °F 30.5 in NE 5.4 mph 7.4 mph 96 % 0 in
03:03 26.8 °F 25.7 °F 30.5 in NNE 5.4 mph 7.4 mph 96 % 0 in
03:08 26.8 °F 25.7 °F 30.6 in NNE 4.7 mph 5.8 mph 96 % 0 in
03:13 26.8 °F 25.7 °F 30.6 in NE 4.9 mph 6.3 mph 96 % 0 in
03:18 26.8 °F 25.7 °F 30.6 in NE 5.4 mph 6.3 mph 96 % 0 in
03:23 26.8 °F 25.7 °F 30.6 in NE 5.8 mph 6.3 mph 96 % 0 in
03:28 26.8 °F 25.7 °F 30.6 in NNE 3.8 mph 6 mph 96 % 0 in
03:33 26.8 °F 25.7 °F 30.6 in NNE 3.6 mph 7.2 mph 96 % 0 in
03:38 26.4 °F 25.5 °F 30.5 in NNE 5.8 mph 7.2 mph 96 % 0 in
03:43 26.4 °F 25.5 °F 30.5 in NNE 3.1 mph 6.5 mph 96 % 0 in
03:48 26.4 °F 25.5 °F 30.5 in NE 6 mph 6.5 mph 96 % 0 in
03:53 26.4 °F 25.5 °F 30.6 in NNE 3.1 mph 6.3 mph 96 % 0 in
03:58 26.4 °F 25.5 °F 30.6 in NNE 5.6 mph 7.8 mph 96 % 0 in
04:03 26.4 °F 25.9 °F 30.6 in NE 6.3 mph 7.8 mph 97 % 0 in
04:08 26.4 °F 25.9 °F 30.6 in NNE 5.6 mph 7.4 mph 97 % 0 in
04:13 26.4 °F 25.9 °F 30.6 in NE 6 mph 7.4 mph 97 % 0 in
04:18 26.4 °F 25.9 °F 30.6 in NNE 6.3 mph 7.6 mph 97 % 0 in
04:23 26.4 °F 25.9 °F 30.5 in NE 4.3 mph 8.1 mph 97 % 0 in
04:28 26.4 °F 25.9 °F 30.5 in NE 4.9 mph 8.1 mph 97 % 0 in
04:33 26.8 °F 26.1 °F 30.5 in NE 5.6 mph 7.4 mph 97 % 0 in
04:38 26.8 °F 26.1 °F 30.6 in NE 7.2 mph 7.8 mph 97 % 0 in
04:43 26.8 °F 26.1 °F 30.6 in NNE 4 mph 7.8 mph 97 % 0 in
04:48 26.8 °F 26.1 °F 30.6 in NE 6.5 mph 7.8 mph 97 % 0 in
04:53 26.8 °F 26.1 °F 30.6 in NE 5.6 mph 8.7 mph 97 % 0 in
04:58 26.8 °F 26.1 °F 30.6 in NNE 4.9 mph 8.7 mph 97 % 0 in
05:03 26.8 °F 26.1 °F 30.6 in NNE 6 mph 7.8 mph 97 % 0 in
05:08 26.8 °F 26.1 °F 30.6 in NNE 5.8 mph 7.8 mph 97 % 0 in
05:13 26.8 °F 26.1 °F 30.6 in NE 5.8 mph 8.7 mph 97 % 0 in
05:18 26.8 °F 26.1 °F 30.6 in NNE 6.3 mph 8.7 mph 97 % 0 in
05:23 26.8 °F 26.1 °F 30.6 in NNE 6.3 mph 7.2 mph 97 % 0 in
05:28 26.8 °F 26.1 °F 30.6 in NNE 5.4 mph 8.1 mph 97 % 0 in
05:33 27 °F 26.1 °F 30.6 in NE 8.5 mph 8.5 mph 97 % 0 in
05:38 26.8 °F 26.1 °F 30.6 in NE 5.4 mph 8.5 mph 97 % 0 in
05:43 27 °F 26.1 °F 30.6 in NE 5.8 mph 7.4 mph 97 % 0 in
05:49 27 °F 26.1 °F 30.6 in ENE 5.6 mph 8.7 mph 97 % 0 in
05:54 27.1 °F 26.2 °F 30.6 in NE 4.9 mph 8.7 mph 97 % 0 in
05:59 27.1 °F 26.2 °F 30.6 in NE 5.6 mph 8.1 mph 97 % 0 in
06:04 27.1 °F 26.2 °F 30.6 in NNE 7.2 mph 8.1 mph 97 % 0 in
06:08 27.1 °F 26.2 °F 30.5 in NE 8.1 mph 8.7 mph 97 % 0 in
06:14 27 °F 26.1 °F 30.5 in NNE 5.6 mph 8.7 mph 97 % 0 in
06:19 27.1 °F 26.2 °F 30.5 in NE 7.6 mph 8.5 mph 97 % 0 in
06:24 27.1 °F 26.4 °F 30.5 in NNE 7.8 mph 11 mph 97 % 0 in
06:28 27.1 °F 26.4 °F 30.5 in NE 8.5 mph 11 mph 97 % 0 in
06:34 27.1 °F 26.4 °F 30.5 in NNE 7.6 mph 9.8 mph 97 % 0 in
06:38 27.1 °F 26.2 °F 30.5 in NNE 6.5 mph 9.8 mph 97 % 0 in
06:44 27.1 °F 26.2 °F 30.5 in NE 8.5 mph 8.9 mph 97 % 0 in
06:48 27.1 °F 26.2 °F 30.5 in NE 5.6 mph 8.7 mph 97 % 0 in
06:53 27.1 °F 26.2 °F 30.5 in NE 6.7 mph 8.7 mph 97 % 0 in
06:58 27.1 °F 26.2 °F 30.5 in NE 6.5 mph 8.7 mph 97 % 0 in
07:03 27 °F 25.9 °F 30.5 in NE 5.6 mph 8.1 mph 96 % 0 in
07:08 27 °F 25.9 °F 30.6 in NE 5.8 mph 7.2 mph 96 % 0 in
07:13 27 °F 25.9 °F 30.6 in NE 4.7 mph 7.2 mph 96 % 0 in
07:18 27.1 °F 26.2 °F 30.6 in NNE 5.8 mph 7.4 mph 97 % 0 in
07:23 27 °F 25.9 °F 30.5 in NE 5.6 mph 8.1 mph 96 % 0 in
07:28 26.8 °F 26.1 °F 30.5 in NE 4.9 mph 8.1 mph 97 % 0 in
07:33 26.4 °F 25.5 °F 30.5 in NNE 3.8 mph 5.8 mph 96 % 0 in
07:38 26.4 °F 25.3 °F 30.6 in NNE 2.7 mph 5.4 mph 96 % 0 in
07:43 26.4 °F 25.3 °F 30.6 in NNE 3.4 mph 5.6 mph 96 % 0 in
07:48 26.2 °F 25.2 °F 30.6 in NE 5.8 mph 6.5 mph 96 % 0 in
07:53 26.2 °F 25.2 °F 30.6 in NE 6.3 mph 7.6 mph 96 % 0 in
07:58 26.2 °F 25.3 °F 30.6 in NE 5.8 mph 8.5 mph 97 % 0 in
08:03 26.2 °F 25.3 °F 30.6 in NE 5.4 mph 8.5 mph 97 % 0 in
08:08 26.4 °F 25.5 °F 30.6 in NE 5.6 mph 8.1 mph 97 % 0 in
08:13 26.2 °F 25.3 °F 30.6 in ENE 5.8 mph 7.8 mph 97 % 0 in
08:18 26.2 °F 25.3 °F 30.6 in NE 5.6 mph 8.7 mph 97 % 0 in
08:23 26.2 °F 25.3 °F 30.6 in NNE 5.6 mph 8.7 mph 97 % 0 in
08:28 26.2 °F 25.3 °F 30.6 in NNE 6.3 mph 8.1 mph 97 % 0 in
08:33 26.4 °F 25.5 °F 30.6 in NE 7.4 mph 7.8 mph 97 % 0 in
08:38 26.4 °F 25.5 °F 30.6 in NNE 5.4 mph 7.8 mph 97 % 0 in
08:43 26.4 °F 25.5 °F 30.6 in NE 7.6 mph 8.1 mph 97 % 0 in
08:48 26.4 °F 25.9 °F 30.6 in NNE 8.1 mph 9.2 mph 97 % 0 in
08:53 26.4 °F 25.9 °F 30.6 in NE 6.5 mph 10.3 mph 97 % 0 in
08:58 26.4 °F 25.9 °F 30.6 in NE 6 mph 10.3 mph 97 % 0 in
09:03 26.8 °F 26.1 °F 30.6 in NE 6.3 mph 8.5 mph 97 % 0 in
09:08 26.8 °F 26.1 °F 30.6 in NNE 7.4 mph 8.5 mph 97 % 0 in
09:13 27 °F 25.9 °F 30.6 in NNE 6.7 mph 8.5 mph 96 % 0 in
09:18 27.1 °F 26.1 °F 30.6 in NE 6.5 mph 8.7 mph 96 % 0 in
09:23 27.1 °F 26.1 °F 30.6 in NNE 7.2 mph 8.7 mph 96 % 0 in
09:28 27.1 °F 26.2 °F 30.6 in NE 6.3 mph 8.1 mph 96 % 0 in
09:33 27.7 °F 26.6 °F 30.6 in ENE 6 mph 8.7 mph 96 % 0 in
09:38 27.9 °F 26.8 °F 30.6 in ENE 7.4 mph 8.7 mph 96 % 0 in
09:43 27.9 °F 27 °F 30.6 in ENE 3.6 mph 7.4 mph 96 % 0 in
09:48 28 °F 27.1 °F 30.6 in ENE 5.6 mph 7.4 mph 96 % 0 in
09:53 28.6 °F 27.5 °F 30.6 in NE 5.8 mph 6.7 mph 96 % 0 in
09:58 28.6 °F 27.7 °F 30.6 in ENE 6.5 mph 7.6 mph 96 % 0 in
10:03 28.9 °F 28 °F 30.6 in ENE 4.9 mph 7.6 mph 96 % 0 in
10:08 29.5 °F 28.2 °F 30.6 in NE 3.1 mph 6.9 mph 95 % 0 in
10:13 29.7 °F 28.6 °F 30.6 in ENE 5.6 mph 7.2 mph 95 % 0 in
10:18 30 °F 28.8 °F 30.6 in NE 8.5 mph 8.5 mph 95 % 0 in
10:23 30.2 °F 28.8 °F 30.6 in NE 6 mph 8.5 mph 94 % 0 in
10:28 30.4 °F 28.6 °F 30.6 in ENE 5.4 mph 8.5 mph 93 % 0 in
10:33 30.7 °F 28.8 °F 30.6 in ENE 7.8 mph 8.5 mph 92 % 0 in
10:38 30.9 °F 28.6 °F 30.6 in NE 8.7 mph 8.7 mph 91 % 0 in
10:43 31.3 °F 28.8 °F 30.6 in NE 6 mph 8.7 mph 90 % 0 in
10:48 31.3 °F 28.4 °F 30.6 in NE 4 mph 8.1 mph 89 % 0 in
10:53 31.8 °F 28.9 °F 30.6 in ENE 6 mph 8.1 mph 89 % 0 in
10:58 32 °F 28.8 °F 30.6 in ENE 6.5 mph 7.4 mph 88 % 0 in
11:03 32.2 °F 28.8 °F 30.6 in ENE 5.8 mph 7.8 mph 87 % 0 in
11:08 32.4 °F 28.9 °F 30.6 in ENE 8.7 mph 8.9 mph 87 % 0 in
11:13 32.5 °F 28.6 °F 30.6 in ENE 6.5 mph 8.9 mph 85 % 0 in
11:18 32.9 °F 28.6 °F 30.6 in NE 6.3 mph 8.1 mph 84 % 0 in
11:23 33.1 °F 28.8 °F 30.6 in NE 6.3 mph 8.1 mph 84 % 0 in
11:28 33.3 °F 28.6 °F 30.6 in NE 6.5 mph 8.9 mph 83 % 0 in
11:33 33.3 °F 28.2 °F 30.6 in ENE 5.4 mph 8.9 mph 82 % 0 in
11:38 33.6 °F 28 °F 30.6 in NE 6 mph 8.1 mph 80 % 0 in
11:43 33.6 °F 27.9 °F 30.6 in ENE 6.5 mph 8.1 mph 79 % 0 in
11:48 34 °F 28 °F 30.6 in ENE 6.3 mph 8.1 mph 79 % 0 in
11:53 34.3 °F 28 °F 30.6 in ENE 5.8 mph 8.1 mph 78 % 0 in
11:58 34.5 °F 28.6 °F 30.6 in East 7.4 mph 7.4 mph 78 % 0 in
12:03 34.9 °F 28.2 °F 30.6 in ESE 4 mph 7.4 mph 77 % 0 in
12:08 34.9 °F 28.2 °F 30.6 in East 7.4 mph 8.5 mph 77 % 0 in
12:13 35.2 °F 28.4 °F 30.6 in ENE 4 mph 8.5 mph 76 % 0 in
12:18 35.4 °F 28.6 °F 30.6 in ENE 6.3 mph 7.6 mph 76 % 0 in
12:23 35.4 °F 27.7 °F 30.6 in ENE 4.9 mph 7.8 mph 73 % 0 in
12:28 36 °F 28 °F 30.6 in East 5.4 mph 7.8 mph 73 % 0 in
12:33 36.1 °F 28 °F 30.6 in East 5.6 mph 6 mph 72 % 0 in
12:38 36.1 °F 28.4 °F 30.6 in ENE 6.3 mph 7.2 mph 73 % 0 in
12:43 36.3 °F 27.7 °F 30.6 in East 4.9 mph 7.2 mph 70 % 0 in
12:48 36.9 °F 28.6 °F 30.6 in NE 6.3 mph 7.2 mph 72 % 0 in
12:53 36.9 °F 28.4 °F 30.6 in East 4.9 mph 7.2 mph 71 % 0 in
12:58 37 °F 28.2 °F 30.6 in ENE 6.3 mph 6.5 mph 70 % 0 in
13:03 37.6 °F 28.6 °F 30.6 in ENE 6.5 mph 6.5 mph 70 % 0 in
13:08 37.6 °F 27.9 °F 30.6 in East 4.7 mph 7.4 mph 68 % 0 in
13:13 37.6 °F 27.1 °F 30.6 in NE 5.8 mph 7.4 mph 66 % 0 in
13:18 37.6 °F 27.1 °F 30.6 in NNE 6 mph 6.7 mph 66 % 0 in
13:23 37.8 °F 28.2 °F 30.5 in NE 4 mph 7.2 mph 68 % 0 in
13:28 37.6 °F 27.3 °F 30.5 in ENE 7.4 mph 7.8 mph 66 % 0 in
13:33 37.8 °F 27.1 °F 30.5 in NE 5.4 mph 7.8 mph 65 % 0 in
13:38 37.8 °F 26.1 °F 30.5 in NE 6 mph 8.5 mph 62 % 0 in
13:43 37.8 °F 26.2 °F 30.5 in NE 4.9 mph 8.5 mph 63 % 0 in
13:48 38.1 °F 27.1 °F 30.5 in ENE 6 mph 7.4 mph 64 % 0 in
13:53 38.5 °F 26.8 °F 30.5 in NE 8.1 mph 8.1 mph 63 % 0 in
13:58 37.9 °F 26.1 °F 30.5 in NNE 6 mph 8.7 mph 62 % 0 in
14:04 38.1 °F 26.2 °F 30.5 in NE 6 mph 8.7 mph 62 % 0 in
14:09 38.5 °F 26.4 °F 30.5 in NE 3.4 mph 8.7 mph 62 % 0 in
14:14 38.5 °F 26.1 °F 30.5 in NE 6.9 mph 8.7 mph 61 % 0 in
14:18 38.5 °F 25.7 °F 30.5 in ENE 6.5 mph 8.7 mph 60 % 0 in
14:24 38.5 °F 25.9 °F 30.5 in NE 6.5 mph 8.7 mph 60 % 0 in
14:28 38.5 °F 25.9 °F 30.5 in East 5.6 mph 9.4 mph 60 % 0 in
14:33 38.7 °F 26.1 °F 30.5 in ENE 4 mph 9.4 mph 60 % 0 in
14:39 38.7 °F 26.1 °F 30.5 in NE 6 mph 7.8 mph 60 % 0 in
14:43 38.7 °F 25.5 °F 30.5 in NE 5.8 mph 7.2 mph 59 % 0 in
14:48 38.8 °F 26.2 °F 30.5 in NE 4 mph 7.2 mph 60 % 0 in
14:54 38.8 °F 25.9 °F 30.5 in ENE 4.9 mph 7.4 mph 59 % 0 in
14:59 39 °F 25.9 °F 30.5 in NNE 3.8 mph 7.4 mph 59 % 0 in
15:04 39 °F 25.9 °F 30.5 in NE 6.5 mph 6.7 mph 59 % 0 in
15:09 39 °F 25.9 °F 30.5 in NE 4.7 mph 7.6 mph 59 % 0 in
15:14 39 °F 25.9 °F 30.5 in NE 4.9 mph 7.6 mph 59 % 0 in
15:19 39 °F 25.9 °F 30.5 in East 3.4 mph 6.5 mph 59 % 0 in
15:24 39.2 °F 26.1 °F 30.5 in East 4.9 mph 6.5 mph 59 % 0 in
15:29 39.2 °F 25.7 °F 30.5 in ENE 4.9 mph 6.3 mph 58 % 0 in
15:34 39.2 °F 26.1 °F 30.5 in ENE 5.4 mph 6.3 mph 59 % 0 in
15:39 39 °F 25.9 °F 30.5 in East 3.8 mph 6 mph 59 % 0 in
15:44 39 °F 25.9 °F 30.5 in East 5.8 mph 6 mph 59 % 0 in
15:49 38.8 °F 25.3 °F 30.5 in ENE 7.8 mph 7.8 mph 58 % 0 in
15:54 38.7 °F 25.2 °F 30.5 in NE 5.6 mph 7.8 mph 58 % 0 in
15:59 38.7 °F 25.2 °F 30.5 in East 4 mph 7.8 mph 58 % 0 in
16:04 38.7 °F 25.2 °F 30.5 in NNE 4 mph 6.3 mph 58 % 0 in
16:09 38.7 °F 25.5 °F 30.5 in East 3.1 mph 5.6 mph 59 % 0 in
16:10 38.7 °F 25.5 °F 30.5 in NE 3.1 mph 5.6 mph 59 % 0 in
16:15 38.5 °F 25 °F 30.5 in ENE 4.3 mph 5.8 mph 58 % 0 in
16:20 38.5 °F 25.3 °F 30.5 in NE 3.1 mph 5.8 mph 59 % 0 in
16:25 37.8 °F 24.8 °F 30.5 in ESE 4 mph 5.6 mph 59 % 0 in
16:30 37.2 °F 24.3 °F 30.5 in East 3.1 mph 5.6 mph 59 % 0 in
16:35 36.9 °F 24.3 °F 30.5 in East 3.4 mph 5.6 mph 60 % 0 in
16:40 36.7 °F 24.4 °F 30.5 in NE 4.9 mph 6 mph 61 % 0 in
16:45 36.1 °F 24.1 °F 30.5 in NE 3.8 mph 6 mph 61 % 0 in
16:50 36 °F 24.1 °F 30.5 in East 4.9 mph 5.8 mph 62 % 0 in
16:55 35.4 °F 24.3 °F 30.5 in ENE 3.8 mph 5.8 mph 63 % 0 in
17:00 35.4 °F 24.1 °F 30.5 in ENE 4 mph 7.2 mph 63 % 0 in
17:05 35.2 °F 24.3 °F 30.5 in NE 3.8 mph 7.2 mph 64 % 0 in
17:10 34.9 °F 23.9 °F 30.5 in ENE 3.8 mph 4.9 mph 64 % 0 in
17:15 34.5 °F 23.5 °F 30.5 in East 2.2 mph 4.7 mph 64 % 0 in
17:20 34.2 °F 23.5 °F 30.5 in ENE 2.5 mph 3.8 mph 65 % 0 in
17:25 34 °F 23.7 °F 30.5 in NE 3.6 mph 3.6 mph 66 % 0 in
17:30 33.8 °F 23.5 °F 30.5 in NE 3.8 mph 4.3 mph 66 % 0 in
17:35 33.6 °F 24.1 °F 30.5 in ENE 4.3 mph 4.7 mph 68 % 0 in
17:40 33.6 °F 24.1 °F 30.5 in NE 4.9 mph 5.8 mph 68 % 0 in
17:45 33.6 °F 24.4 °F 30.5 in ENE 4.3 mph 5.8 mph 69 % 0 in
17:50 33.4 °F 24.3 °F 30.5 in ENE 4.3 mph 6.3 mph 69 % 0 in
17:55 33.4 °F 24.3 °F 30.5 in ENE 3.8 mph 6.3 mph 69 % 0 in
18:00 33.3 °F 24.3 °F 30.5 in ENE 5.6 mph 5.6 mph 69 % 0 in
18:05 33.3 °F 24.4 °F 30.5 in NE 6.5 mph 7.2 mph 70 % 0 in
18:10 33.6 °F 24.8 °F 30.5 in ENE 6.5 mph 8.1 mph 70 % 0 in
18:15 33.6 °F 24.8 °F 30.5 in NE 6.5 mph 8.5 mph 70 % 0 in
18:20 33.6 °F 24.8 °F 30.5 in NE 8.1 mph 8.5 mph 70 % 0 in
18:25 33.6 °F 24.8 °F 30.5 in NNE 7.6 mph 9.8 mph 70 % 0 in
18:30 33.3 °F 24.4 °F 30.5 in ENE 8.7 mph 10.3 mph 70 % 0 in
18:35 33.3 °F 24.4 °F 30.5 in NE 10.3 mph 10.5 mph 70 % 0 in
18:40 33.1 °F 24.6 °F 30.5 in NE 10.7 mph 10.7 mph 71 % 0 in
18:45 33.1 °F 25.3 °F 30.5 in North 9.4 mph 11 mph 73 % 0 in
18:50 32.9 °F 25.5 °F 30.5 in NE 10.5 mph 12.5 mph 74 % 0 in
18:55 32.7 °F 25.7 °F 30.5 in NE 8.7 mph 12.5 mph 75 % 0 in
19:00 32.7 °F 26.1 °F 30.5 in NE 7.8 mph 12.5 mph 76 % 0 in
19:05 32.5 °F 25.9 °F 30.5 in NE 8.1 mph 11.2 mph 76 % 0 in
19:10 32.5 °F 26.1 °F 30.5 in NE 8.7 mph 10.1 mph 77 % 0 in
19:15 32.5 °F 26.4 °F 30.5 in NE 8.5 mph 10.3 mph 78 % 0 in
19:20 32.5 °F 26.4 °F 30.5 in NE 7.8 mph 10.3 mph 78 % 0 in
19:25 32.7 °F 26.6 °F 30.5 in NE 7.4 mph 10.3 mph 78 % 0 in
19:30 32.7 °F 26.6 °F 30.5 in NE 8.1 mph 10.3 mph 78 % 0 in
19:35 32.7 °F 26.6 °F 30.5 in ENE 5.8 mph 9.8 mph 78 % 0 in
19:40 32.7 °F 26.6 °F 30.5 in ENE 6.5 mph 8.5 mph 78 % 0 in
19:45 32.5 °F 26.4 °F 30.5 in NE 7.2 mph 8.5 mph 78 % 0 in
19:50 32.5 °F 26.4 °F 30.5 in ENE 7.8 mph 9.8 mph 78 % 0 in
19:55 32.5 °F 26.4 °F 30.5 in NE 6.3 mph 9.8 mph 78 % 0 in
20:00 32.5 °F 26.4 °F 30.5 in NE 7.6 mph 9.6 mph 78 % 0 in
20:05 32.5 °F 26.1 °F 30.5 in NE 5.8 mph 9.6 mph 77 % 0 in
20:10 32.5 °F 26.1 °F 30.5 in ENE 5.6 mph 9.6 mph 77 % 0 in
20:15 32.4 °F 25.9 °F 30.5 in ENE 6.3 mph 7.8 mph 77 % 0 in
20:20 32.2 °F 25.9 °F 30.5 in ENE 5.6 mph 7.4 mph 77 % 0 in
20:25 32 °F 25.5 °F 30.5 in NE 4 mph 7.4 mph 77 % 0 in
20:30 31.8 °F 25.3 °F 30.5 in NE 5.6 mph 6.5 mph 77 % 0 in
20:35 31.6 °F 25.3 °F 30.5 in ENE 5.4 mph 6.5 mph 77 % 0 in
20:40 31.5 °F 25.2 °F 30.5 in ENE 3.6 mph 6.3 mph 77 % 0 in
20:46 31.5 °F 25.3 °F 30.5 in ENE 4.5 mph 5.8 mph 78 % 0 in
20:51 31.3 °F 25.2 °F 30.5 in ENE 4.7 mph 6 mph 78 % 0 in
20:56 31.5 °F 25.3 °F 30.5 in ENE 8.1 mph 8.1 mph 78 % 0 in
21:01 31.5 °F 25.3 °F 30.5 in ENE 6 mph 8.1 mph 78 % 0 in
21:06 31.5 °F 25.3 °F 30.5 in ENE 4.9 mph 8.1 mph 78 % 0 in
21:11 31.5 °F 25.2 °F 30.5 in NE 4.3 mph 7.4 mph 77 % 0 in
21:16 31.3 °F 25 °F 30.5 in ENE 4.9 mph 5.8 mph 77 % 0 in
21:21 31.1 °F 24.6 °F 30.5 in ENE 6.5 mph 6.5 mph 77 % 0 in
21:26 31.1 °F 24.6 °F 30.5 in ENE 4 mph 6.5 mph 77 % 0 in
21:31 31.1 °F 24.6 °F 30.5 in ENE 3.6 mph 6 mph 77 % 0 in
21:36 30.9 °F 24.6 °F 30.5 in ENE 4 mph 5.6 mph 77 % 0 in
21:41 30.7 °F 24.6 °F 30.5 in NE 3.4 mph 5.8 mph 78 % 0 in
21:46 30.6 °F 24.4 °F 30.5 in NE 3.8 mph 5.8 mph 78 % 0 in
21:51 30.4 °F 24.4 °F 30.5 in ENE 3.8 mph 5.4 mph 78 % 0 in
21:56 30.2 °F 24.3 °F 30.5 in ENE 2.7 mph 4.7 mph 78 % 0 in
22:01 30 °F 24.1 °F 30.5 in East 3.1 mph 4.3 mph 78 % 0 in
22:06 30 °F 24.1 °F 30.5 in ENE 2.9 mph 4.3 mph 78 % 0 in
22:11 30 °F 24.1 °F 30.5 in ENE 3.4 mph 4.3 mph 78 % 0 in
22:16 29.8 °F 23.9 °F 30.5 in NE 3.6 mph 4.7 mph 78 % 0 in
22:21 29.8 °F 23.9 °F 30.5 in NE 3.8 mph 4.9 mph 78 % 0 in
22:26 29.8 °F 23.9 °F 30.5 in NE 4.9 mph 5.6 mph 78 % 0 in
22:31 29.8 °F 24.3 °F 30.5 in ENE 3.6 mph 5.6 mph 79 % 0 in
22:36 29.8 °F 24.3 °F 30.5 in NE 5.4 mph 5.6 mph 79 % 0 in
22:41 29.8 °F 23.9 °F 30.5 in NE 5.6 mph 5.8 mph 78 % 0 in
22:46 29.8 °F 23.9 °F 30.5 in ENE 4.3 mph 6 mph 78 % 0 in
22:51 29.8 °F 23.9 °F 30.5 in NE 4.9 mph 6 mph 78 % 0 in
22:56 29.8 °F 23.9 °F 30.5 in East 6.5 mph 6.5 mph 78 % 0 in
23:01 29.8 °F 23.9 °F 30.5 in NE 6 mph 6.5 mph 78 % 0 in
23:06 29.8 °F 23.9 °F 30.5 in NE 5.6 mph 6.3 mph 78 % 0 in
23:11 29.8 °F 23.9 °F 30.5 in ENE 6 mph 6.3 mph 78 % 0 in
23:16 29.7 °F 23.7 °F 30.5 in ENE 5.4 mph 6.3 mph 78 % 0 in
23:21 29.7 °F 23.7 °F 30.5 in NE 3.4 mph 5.8 mph 78 % 0 in
23:26 29.5 °F 23.2 °F 30.5 in ENE 3.6 mph 5.8 mph 77 % 0 in
23:31 29.5 °F 23 °F 30.5 in ENE 3.8 mph 4.3 mph 77 % 0 in
23:36 29.1 °F 22.8 °F 30.5 in ENE 4 mph 5.8 mph 77 % 0 in
23:41 29.1 °F 23.2 °F 30.5 in NE 4.3 mph 5.8 mph 78 % 0 in
23:46 29.5 °F 23.4 °F 30.5 in NE 4.9 mph 6.5 mph 78 % 0 in
23:51 29.1 °F 23.2 °F 30.5 in NE 2.9 mph 6.5 mph 78 % 0 in
23:56 28.8 °F 22.8 °F 30.5 in NNE 3.8 mph 4.9 mph 78 % 0 in
Le Gheer Warneton
Courtoisie de Weather Underground - 2.25 mb

Mise a jour : 16-12-17 15:52:10
Généré par Cumulus 1.9.4 (1099)